Stündliche Wetter Otmice

Heute, 14 April, Mittwoch

Zeit Temperatur Niederschläge Wind Luftdruck Luftfeuchtigkeit
00:00 +1°C° 0.1 mm 3 m/S 749 mmHg 80%
01:00 +1°C° 0 mm 3 m/S 749 mmHg 77%
02:00 +1°C° 0.2 mm 3 m/S 749 mmHg 83%
03:00 +1°C° 0.2 mm 3 m/S 749 mmHg 90%
04:00 0°C° 0.2 mm 3 m/S 749 mmHg 96%
05:00 +1°C° 0.2 mm 3 m/S 749 mmHg 92%
06:00 +1°C° 0.2 mm 3 m/S 749 mmHg 89%
07:00 +1°C° 0 mm 3 m/S 749 mmHg 86%
08:00 +1°C° 0.1 mm 4 m/S 749 mmHg 81%
09:00 +2°C° 0.1 mm 5 m/S 749 mmHg 77%
10:00 +3°C° 0.1 mm 5 m/S 749 mmHg 72%
11:00 +3°C° 0.2 mm 5 m/S 749 mmHg 68%
12:00 +5°C° 0.2 mm 5 m/S 749 mmHg 63%
13:00 +5°C° 0.2 mm 5 m/S 749 mmHg 59%
14:00 +5°C° 0.1 mm 5 m/S 748 mmHg 58%
15:00 +5°C° 0.1 mm 5 m/S 748 mmHg 58%
16:00 +5°C° 0.1 mm 5 m/S 748 mmHg 58%
17:00 +5°C° 0.1 mm 4 m/S 748 mmHg 62%
18:00 +4°C° 0.1 mm 4 m/S 748 mmHg 67%
19:00 +3°C° 0.1 mm 3 m/S 749 mmHg 71%
20:00 +2°C° 0 mm 3 m/S 749 mmHg 76%
21:00 +2°C° 0 mm 3 m/S 749 mmHg 80%
22:00 +2°C° 0 mm 3 m/S 749 mmHg 84%
23:00 +2°C° 0 mm 3 m/S 749 mmHg 84%

Morgen, 15 April, Donnerstag

Zeit Temperatur Niederschläge Wind Luftdruck Luftfeuchtigkeit
00:00 +1°C° 0 mm 3 m/S 749 mmHg 84%
01:00 +1°C° 0 mm 3 m/S 749 mmHg 84%
02:00 +1°C° 0 mm 3 m/S 749 mmHg 86%
03:00 0°C° 0 mm 4 m/S 749 mmHg 89%
04:00 -1°C° 0 mm 4 m/S 748 mmHg 91%
05:00 -1°C° 0.3 mm 4 m/S 748 mmHg 93%
06:00 -1°C° 0.3 mm 4 m/S 748 mmHg 95%
07:00 -1°C° 0.3 mm 5 m/S 748 mmHg 97%
08:00 -1°C° 0.5 mm 5 m/S 748 mmHg 97%
09:00 -1°C° 0.5 mm 5 m/S 748 mmHg 97%
10:00 -1°C° 0.5 mm 5 m/S 748 mmHg 97%
11:00 -1°C° 0.7 mm 5 m/S 748 mmHg 97%
12:00 -1°C° 0.7 mm 5 m/S 748 mmHg 97%
13:00 -1°C° 0.7 mm 5 m/S 748 mmHg 97%
14:00 -1°C° 0.7 mm 5 m/S 748 mmHg 97%
15:00 -1°C° 0.7 mm 5 m/S 748 mmHg 98%
16:00 -1°C° 0.7 mm 5 m/S 747 mmHg 98%
17:00 -1°C° 0.7 mm 5 m/S 747 mmHg 98%
18:00 -1°C° 0.7 mm 4 m/S 747 mmHg 98%
19:00 -1°C° 0.7 mm 4 m/S 747 mmHg 98%
20:00 -1°C° 0.3 mm 4 m/S 747 mmHg 98%
21:00 0°C° 0.3 mm 3 m/S 747 mmHg 98%
22:00 0°C° 0.3 mm 3 m/S 747 mmHg 98%
23:00 0°C° 0.2 mm 3 m/S 747 mmHg 98%

übermorgen, 16 April, Freitag

Zeit Temperatur Niederschläge Wind Luftdruck Luftfeuchtigkeit
00:00 0°C° 0.2 mm 3 m/S 747 mmHg 98%
01:00 0°C° 0.2 mm 3 m/S 747 mmHg 99%
02:00 0°C° 0.2 mm 3 m/S 746 mmHg 99%
03:00 0°C° 0.2 mm 3 m/S 746 mmHg 98%
04:00 0°C° 0.2 mm 3 m/S 746 mmHg 98%
05:00 0°C° 0.3 mm 3 m/S 746 mmHg 99%
06:00 0°C° 0.3 mm 3 m/S 747 mmHg 99%
07:00 0°C° 0.3 mm 3 m/S 747 mmHg 99%
08:00 0°C° 0.3 mm 3 m/S 747 mmHg 99%
09:00 +1°C° 0.3 mm 3 m/S 747 mmHg 99%
10:00 +1°C° 0.3 mm 3 m/S 747 mmHg 99%
11:00 +1°C° 0.3 mm 3 m/S 747 mmHg 99%
12:00 +2°C° 0.3 mm 3 m/S 747 mmHg 98%
13:00 +2°C° 0.3 mm 3 m/S 748 mmHg 98%
14:00 +2°C° 0.2 mm 3 m/S 747 mmHg 98%
15:00 +3°C° 0.2 mm 2 m/S 747 mmHg 98%
16:00 +4°C° 0.2 mm 2 m/S 747 mmHg 98%
17:00 +3°C° 0.1 mm 2 m/S 748 mmHg 99%
18:00 +3°C° 0.1 mm 2 m/S 748 mmHg 99%
19:00 +3°C° 0.1 mm 2 m/S 748 mmHg 99%
20:00 +3°C° 0.1 mm 2 m/S 748 mmHg 99%
21:00 +3°C° 0.1 mm 2 m/S 748 mmHg 99%
22:00 +3°C° 0.1 mm 2 m/S 748 mmHg 99%
23:00 +3°C° 0 mm 2 m/S 748 mmHg 99%

17 April, Samstag

Zeit Temperatur Niederschläge Wind Luftdruck Luftfeuchtigkeit
00:00 +3°C° 0 mm 2 m/S 748 mmHg 99%
01:00 +3°C° 0 mm 2 m/S 747 mmHg 99%
02:00 +3°C° 0.2 mm 2 m/S 747 mmHg 99%
03:00 +3°C° 0.2 mm 2 m/S 747 mmHg 99%
04:00 +3°C° 0.2 mm 2 m/S 747 mmHg 99%
05:00 +3°C° 0.4 mm 2 m/S 747 mmHg 99%
06:00 +3°C° 0.4 mm 3 m/S 747 mmHg 99%
07:00 +3°C° 0.4 mm 3 m/S 747 mmHg 99%
08:00 +3°C° 0.2 mm 3 m/S 747 mmHg 98%
09:00 +3°C° 0.2 mm 3 m/S 747 mmHg 98%
10:00 +4°C° 0.2 mm 3 m/S 747 mmHg 98%
11:00 +4°C° 0.1 mm 3 m/S 747 mmHg 98%
12:00 +4°C° 0.1 mm 3 m/S 747 mmHg 97%
13:00 +5°C° 0.1 mm 3 m/S 747 mmHg 97%
14:00 +6°C° 0 mm 2 m/S 747 mmHg 97%
15:00 +6°C° 0 mm 2 m/S 747 mmHg 96%
16:00 +7°C° 0 mm 2 m/S 747 mmHg 96%
17:00 +6°C° 0 mm 2 m/S 747 mmHg 96%
18:00 +6°C° 0 mm 2 m/S 747 mmHg 97%
19:00 +6°C° 0 mm 2 m/S 747 mmHg 98%
20:00 +6°C° 0 mm 2 m/S 747 mmHg 98%
21:00 +6°C° 0 mm 2 m/S 747 mmHg 98%
22:00 +6°C° 0 mm 2 m/S 747 mmHg 98%
23:00 +6°C° 0.2 mm 2 m/S 747 mmHg 98%

18 April, Sonntag

Zeit Temperatur Niederschläge Wind Luftdruck Luftfeuchtigkeit
00:00 +6°C° 0.2 mm 2 m/S 746 mmHg 99%
01:00 +5°C° 0.2 mm 2 m/S 746 mmHg 99%
02:00 +6°C° 0.1 mm 1 m/S 746 mmHg 99%
03:00 +6°C° 0.1 mm 1 m/S 746 mmHg 99%
04:00 +6°C° 0.1 mm 1 m/S 746 mmHg 99%
05:00 +7°C° 0 mm 1 m/S 746 mmHg 98%
06:00 +6°C° 0 mm 2 m/S 746 mmHg 97%
07:00 +6°C° 0 mm 2 m/S 746 mmHg 96%
08:00 +7°C° 0 mm 2 m/S 746 mmHg 91%
09:00 +7°C° 0 mm 2 m/S 747 mmHg 85%
10:00 +8°C° 0 mm 2 m/S 747 mmHg 80%
11:00 +9°C° 0 mm 3 m/S 747 mmHg 76%
12:00 +9°C° 0 mm 3 m/S 747 mmHg 73%
13:00 +10°C° 0 mm 3 m/S 747 mmHg 70%
14:00 +10°C° 0 mm 3 m/S 746 mmHg 71%
15:00 +10°C° 0 mm 3 m/S 746 mmHg 73%
16:00 +10°C° 0 mm 2 m/S 746 mmHg 74%
17:00 +9°C° 0 mm 2 m/S 746 mmHg 77%
18:00 +8°C° 0 mm 2 m/S 746 mmHg 81%
19:00 +8°C° 0 mm 2 m/S 746 mmHg 84%
20:00 +7°C° 0 mm 2 m/S 746 mmHg 85%
21:00 +7°C° 0 mm 2 m/S 746 mmHg 86%
22:00 +7°C° 0 mm 2 m/S 746 mmHg 87%
23:00 +7°C° 0 mm 2 m/S 746 mmHg 87%

19 April, Montag

Zeit Temperatur Niederschläge Wind Luftdruck Luftfeuchtigkeit
00:00 +7°C° 0 mm 2 m/S 746 mmHg 87%
01:00 +7°C° 0 mm 2 m/S 746 mmHg 87%
02:00 +7°C° 0 mm 2 m/S 746 mmHg 88%
03:00 +8°C° 0 mm 1 m/S 746 mmHg 89%
04:00 +8°C° 0 mm 1 m/S 746 mmHg 89%
05:00 +7°C° 0.1 mm 2 m/S 746 mmHg 89%
06:00 +7°C° 0.1 mm 2 m/S 746 mmHg 89%
07:00 +8°C° 0.1 mm 2 m/S 746 mmHg 88%
08:00 +8°C° 0.2 mm 2 m/S 746 mmHg 88%
09:00 +8°C° 0.2 mm 2 m/S 746 mmHg 88%
10:00 +8°C° 0.2 mm 3 m/S 746 mmHg 87%
11:00 +8°C° 0.3 mm 3 m/S 745 mmHg 88%
12:00 +8°C° 0.3 mm 3 m/S 745 mmHg 89%
13:00 +7°C° 0.3 mm 4 m/S 745 mmHg 90%
14:00 +8°C° 0.2 mm 3 m/S 745 mmHg 91%
15:00 +8°C° 0.2 mm 3 m/S 745 mmHg 92%
16:00 +8°C° 0.2 mm 3 m/S 744 mmHg 93%
17:00 +7°C° 0.1 mm 3 m/S 744 mmHg 94%
18:00 +7°C° 0.1 mm 2 m/S 744 mmHg 94%
19:00 +7°C° 0.1 mm 2 m/S 744 mmHg 95%
20:00 +7°C° 0 mm 2 m/S 744 mmHg 95%
21:00 +7°C° 0 mm 2 m/S 744 mmHg 96%
22:00 +7°C° 0 mm 2 m/S 744 mmHg 96%
23:00 +7°C° 0 mm 2 m/S 744 mmHg 96%
Mehr zeigen

Wir brauchen deine Erlaubnis

Meteoprog und unser Service Anbieter werden persönliche Daten aufbewahren, so wie Cookies, Geräte Bezeichnung oder ähnliche Technologien von deinem Gerät und Prozess, so wie Persönliche Daten Inhalte und Werbungen, genauso wie social Media und den Verkehr zu analysieren.

  • Aufbewahrung und/oder Zugang zu deiner Geräte Informationen.

    Cookies, Geräte Bezeichnung oder andere Informationen, können aufbewahrt oder Zugang zu deinem Gerät erhalten, für den Grund, der oben angegeben wird.

  • Personalisierte Werbung und Inhalte, Messungen, Einblick in das Publikum und Produkt Entwicklung.

    Werbungen und Inhalte können personalisiert werden, basierend auf ein Profil. Mehr Daten können besser personalisierte Werbungen und Inhalte hinzufügen. Werbung und Inhalte können gezeigt und gemessen werden. Einblicke über das Publikum, welche die Werbung gesehen haben und den Inhalt, können abgeleitet werden. So wie Daten können genutzt werden, um es zu verbessern oder die Benutzer Erfahrung zu verbessern das System und die Software.

Wenn du “Ich stimme zu” klickst, erlaubst du uns, die Cookies zu benutzen die Geräte Bezeichnung, den Web oder ähnliche Technologien zu benutzen. Deine Settings, können in deinem Gerät bei deinem Browser geändert werden.

Für den bestimmten Zweck, berechtigten Interessen beruhen darauf, mehr als auf den Inhalt. Du kannst mehr darüber in unseren Privaten und Cookie Politik lesen.